KF6ILA Weather Reports


time (UTC)temp
F
wind
direction
speed
knots
gust
knots
rain 1hr
in
rain 24hr
in
rain mn
in
humidity
%
barometer
mb
20260903182854 73 271 10.4 19.1 0.00 0.00 0.00 25 1015.7
20260903181900 73 274 12.2 19.1 0.00 0.00 0.00 26 1015.5
20260903180906 73 250 12.2 18.2 0.00 0.00 0.00 25 1015.8
20260903175415 72 254 7.8 17.4 0.00 0.00 0.00 27 1015.9
20260903174917 72 255 10.4 17.4 0.00 0.00 0.00 26 1015.8
20260903173427 71 229 9.6 17.4 0.00 0.00 0.00 27 1015.8
20260903172930 71 259 11.3 17.4 0.00 0.00 0.00 27 1015.8
20260903171936 69 255 11.3 20.0 0.00 0.00 0.00 29 1015.8
20260903171439 69 254 13.0 20.0 0.00 0.00 0.00 28 1015.7
20260903170942 69 265 10.4 20.0 0.00 0.00 0.00 29 1015.7
20260903165947 68 265 13.9 19.1 0.00 0.00 0.00 28 1015.7
20260903165451 68 253 11.3 18.2 0.00 0.00 0.00 30 1015.7
20260903164954 67 251 12.2 19.1 0.00 0.00 0.00 30 1015.7
20260903164457 67 245 12.2 20.0 0.00 0.00 0.00 30 1015.7
20260903163502 67 252 13.0 20.9 0.00 0.00 0.00 31 1015.6
20260903163006 66 253 12.2 17.4 0.00 0.00 0.00 31 1015.5
20260903162508 66 259 11.3 20.9 0.00 0.00 0.00 32 1015.5
20260903161514 66 272 12.2 18.2 0.00 0.00 0.00 31 1015.5
20260903155030 65 250 11.3 19.1 0.00 0.00 0.00 30 1015.3
20260903154533 65 254 11.3 19.1 0.00 0.00 0.00 30 1015.3
20260903154036 65 243 10.4 16.5 0.00 0.00 0.00 30 1015.4
20260903153539 64 258 11.3 18.2 0.00 0.00 0.00 30 1015.3
20260903153042 64 249 8.7 18.2 0.00 0.00 0.00 30 1015.3
20260903152734 64 261 11.3 19.1 0.00 0.00 0.00 30 1015.3
20260903152544 64 261 11.3 19.1 0.00 0.00 0.00 30 1015.3
20260903152048 64 250 12.2 19.1 0.00 0.00 0.00 30 1015.4
20260903151054 63 252 13.0 18.2 0.00 0.00 0.00 29 1014.5
20260903150557 63 252 11.3 18.2 0.00 0.00 0.00 28 1014.5
20260903150100 63 249 11.3 18.2 0.00 0.00 0.00 28 1014.5
20260903145106 62 248 10.4 18.2 0.00 0.00 0.00 24 1014.4
20260903144608 62 256 12.2 18.2 0.00 0.00 0.00 22 1014.4
20260903144112 62 246 13.9 18.2 0.00 0.00 0.00 22 1014.4
20260903143614 61 242 13.0 17.4 0.00 0.00 0.00 22 1014.3
20260903143117 61 246 11.3 19.1 0.00 0.00 0.00 21 1014.3
20260903142620 61 251 11.3 19.1 0.00 0.00 0.00 23 1014.1
20260903142123 61 248 13.0 20.0 0.00 0.00 0.00 21 1014.1
20260903141628 61 250 13.0 20.0 0.00 0.00 0.00 20 1014.0
20260903141129 61 250 13.9 20.0 0.00 0.00 0.00 18 1014.0
20260903140632 61 254 13.0 20.0 0.00 0.00 0.00 17 1013.9
20260903140135 61 252 13.9 20.0 0.00 0.00 0.00 18 1013.8
20260903135638 60 256 11.3 18.2 0.00 0.00 0.00 18 1013.7
20260903135141 60 263 13.0 18.2 0.00 0.00 0.00 18 1013.6
20260903134644 60 263 12.2 19.1 0.00 0.00 0.00 17 1013.5
20260903133650 60 259 13.9 20.0 0.00 0.00 0.00 17 1013.6
20260903132657 60 257 13.9 20.9 0.00 0.00 0.00 16 1013.6
20260903132159 60 259 13.9 20.9 0.00 0.00 0.00 16 1013.6
20260903131702 60 262 13.0 20.9 0.00 0.00 0.00 17 1013.5
20260903130708 60 261 13.0 17.4 0.00 0.00 0.00 17 1013.5
20260903130211 59 257 13.0 17.4 0.00 0.00 0.00 17 1013.5
20260903125714 59 255 12.2 20.0 0.00 0.00 0.00 16 1013.5
20260903125217 59 253 13.9 20.0 0.00 0.00 0.00 14 1013.5
20260903124720 60 254 13.9 19.1 0.00 0.00 0.00 14 1013.6
20260903124224 60 254 13.0 21.7 0.00 0.00 0.00 15 1013.6
20260903123726 60 256 14.8 21.7 0.00 0.00 0.00 15 1013.4
20260903123229 60 262 12.2 19.1 0.00 0.00 0.00 14 1013.3
20260903122732 59 258 13.0 19.1 0.00 0.00 0.00 13 1013.4
20260903122235 59 255 11.3 19.1 0.00 0.00 0.00 12 1013.3
20260903121738 60 253 12.2 19.1 0.00 0.00 0.00 12 1013.4
20260903121241 60 257 13.0 20.0 0.00 0.00 0.00 13 1013.4
20260903120744 60 257 13.9 20.0 0.00 0.00 0.00 14 1013.3
20260903120247 59 255 13.9 20.0 0.00 0.00 0.00 15 1013.4
20260903115750 59 259 12.2 19.1 0.00 0.00 0.00 13 1013.3
20260903115253 59 259 13.0 19.1 0.00 0.00 0.00 13 1013.5
20260903114756 59 255 11.3 19.1 0.00 0.00 0.00 12 1013.6
20260903114259 59 255 12.2 19.1 0.00 0.00 0.00 11 1013.6
20260903113803 59 250 13.0 19.1 0.00 0.00 0.00 11 1013.6
20260903113305 59 248 13.0 19.1 0.00 0.00 0.00 10 1013.6
20260903112809 59 249 13.9 20.9 0.00 0.00 0.00 10 1013.6
20260903112311 59 246 13.0 20.9 0.00 0.00 0.00 11 1013.6
20260903111814 59 246 13.0 20.9 0.00 0.00 0.00 10 1013.6
20260903111317 59 250 13.0 20.9 0.00 0.00 0.00 10 1013.6
20260903110820 59 248 14.8 20.0 0.00 0.00 0.00 10 1013.7
20260903110323 59 246 15.6 20.0 0.00 0.00 0.00 10 1013.8
20260903105826 59 245 15.6 20.0 0.00 0.00 0.00 10 1013.8
20260903105329 59 244 15.6 20.9 0.00 0.00 0.00 10 1013.9
20260903104832 59 245 14.8 20.9 0.00 0.00 0.00 10 1013.7
20260903104335 59 245 16.5 20.9 0.00 0.00 0.00 10 1013.9
20260903103838 59 246 14.8 20.0 0.00 0.00 0.00 10 1013.9
20260903103341 59 246 14.8 19.1 0.00 0.00 0.00 10 1013.9
20260903102844 59 247 14.8 20.9 0.00 0.00 0.00 10 1013.9
20260903102347 59 247 14.8 20.9 0.00 0.00 0.00 10 1013.8
20260903101850 59 249 14.8 19.1 0.00 0.00 0.00 10 1013.9
20260903101353 59 248 13.9 19.1 0.00 0.00 0.00 10 1014.0
20260903100856 59 253 13.0 20.9 0.00 0.00 0.00 10 1014.1
20260903100359 60 251 14.8 20.9 0.00 0.00 0.00 10 1014.0
20260903095902 60 252 13.9 21.7 0.00 0.00 0.00 10 1014.0
20260903095405 60 256 16.5 21.7 0.00 0.00 0.00 10 1013.9
20260903094908 60 249 14.8 22.6 0.00 0.00 0.00 10 1014.0
20260903094411 60 258 15.6 23.5 0.00 0.00 0.00 10 1014.0
20260903093915 60 255 16.5 23.5 0.00 0.00 0.00 10 1013.9
20260903093417 60 260 17.4 24.3 0.00 0.00 0.00 10 1013.9
20260903092920 60 258 17.4 24.3 0.00 0.00 0.00 10 1014.0
20260903092423 60 255 17.4 24.3 0.00 0.00 0.00 10 1013.9
20260903091927 61 258 16.5 24.3 0.00 0.00 0.00 10 1013.8
20260903091429 61 256 16.5 24.3 0.00 0.00 0.00 10 1013.6
20260903090933 61 259 17.4 25.2 0.00 0.00 0.00 10 1013.6
20260903090435 61 257 18.2 25.2 0.00 0.00 0.00 10 1013.6
20260903085939 61 257 19.1 27.8 0.00 0.00 0.00 11 1013.6
20260903085442 61 259 19.1 27.8 0.00 0.00 0.00 11 1013.6
20260903084944 61 258 19.1 26.9 0.00 0.00 0.00 12 1014.5
20260903084447 61 260 18.2 27.8 0.00 0.00 0.00 12 1014.5
20260903083951 61 251 18.2 27.8 0.00 0.00 0.00 12 1014.5
20260903083454 61 255 20.0 27.8 0.00 0.00 0.00 13 1014.8
20260903082957 61 253 20.0 27.8 0.00 0.00 0.00 14 1014.7
20260903082459 60 255 20.9 26.9 0.00 0.00 0.00 15 1014.9
20260903082002 60 255 20.9 26.9 0.00 0.00 0.00 16 1014.9
20260903081009 60 256 17.4 25.2 0.00 0.00 0.00 19 1014.9
20260903080512 59 255 18.2 25.2 0.00 0.00 0.00 20 1015.0
20260903080014 59 253 20.0 26.9 0.00 0.00 0.00 24 1015.1
20260903075517 59 247 18.2 26.9 0.00 0.00 0.00 29 1015.2
20260903075021 58 243 18.2 23.5 0.00 0.00 0.00 34 1015.2
20260903074523 58 244 17.4 23.5 0.00 0.00 0.00 38 1015.2
20260903074027 58 244 18.2 23.5 0.00 0.00 0.00 41 1015.3
20260903073529 58 247 17.4 20.9 0.00 0.00 0.00 47 1015.3
20260903073032 57 253 15.6 20.9 0.00 0.00 0.00 49 1015.4
20260903072536 57 245 14.8 20.9 0.00 0.00 0.00 49 1015.4
20260903072039 57 249 15.6 20.9 0.00 0.00 0.00 51 1015.5
20260903071541 57 247 14.8 19.1 0.00 0.00 0.00 53 1015.5
20260903071045 58 250 11.3 19.1 0.00 0.00 0.00 51 1015.5
20260903070547 58 251 12.2 19.1 0.00 0.00 0.00 48 1015.5
20260903070050 59 257 12.2 19.1 0.00 0.00 0.00 44 1015.5
20260903065553 59 262 13.0 19.1 0.00 0.00 0.00 40 1015.6
20260903065057 59 265 12.2 18.2 0.00 0.00 0.00 37 1015.6
20260903064600 60 261 11.3 19.1 0.00 0.00 0.00 34 1015.6
20260903064103 60 264 13.0 19.1 0.00 0.00 0.00 33 1015.5
20260903063605 60 268 11.3 20.9 0.00 0.00 0.00 34 1015.5
20260903063108 61 267 13.9 20.9 0.00 0.00 0.00 30 1015.5
20260903062611 61 259 14.8 20.9 0.00 0.00 0.00 30 1015.5
20260903062114 61 260 15.6 22.6 0.00 0.00 0.00 28 1015.4
20260903061617 61 263 13.9 22.6 0.00 0.00 0.00 29 1015.3
20260903061121 61 261 13.9 20.9 0.00 0.00 0.00 28 1015.3
20260903060624 61 267 13.9 20.9 0.00 0.00 0.00 29 1015.4
20260903060127 61 269 13.0 20.9 0.00 0.00 0.00 30 1015.5
20260903055630 61 264 13.9 20.9 0.00 0.00 0.00 30 1015.4
20260903055133 61 266 13.9 20.9 0.00 0.00 0.00 30 1015.4
20260903054636 61 262 16.5 22.6 0.00 0.00 0.00 28 1015.4
20260903054139 62 262 13.9 23.5 0.00 0.00 0.00 28 1015.5
20260903053641 62 260 15.6 25.2 0.00 0.00 0.00 27 1015.6
20260903053145 62 261 14.8 25.2 0.00 0.00 0.00 27 1015.5
20260903052648 62 253 18.2 23.5 0.00 0.00 0.00 27 1015.5
20260903052151 62 259 16.5 23.5 0.00 0.00 0.00 26 1015.5
20260903051157 63 257 15.6 24.3 0.00 0.00 0.00 23 1015.4
20260903050700 63 256 17.4 24.3 0.00 0.00 0.00 22 1015.5
20260903045706 63 258 19.1 24.3 0.00 0.00 0.00 21 1015.4
20260903045209 63 258 17.4 24.3 0.00 0.00 0.00 21 1015.5
20260903044712 62 251 15.6 24.3 0.00 0.00 0.00 22 1015.5
20260903044215 62 252 16.5 23.5 0.00 0.00 0.00 24 1015.4
20260903043718 62 245 18.2 23.5 0.00 0.00 0.00 25 1015.5
20260903043221 62 252 17.4 25.2 0.00 0.00 0.00 25 1015.4
20260903041730 62 250 14.8 22.6 0.00 0.00 0.00 30 1015.4
20260903034748 60 247 16.5 21.7 0.00 0.00 0.00 51 1015.1
20260903034251 60 251 16.5 20.9 0.00 0.00 0.00 56 1015.1
20260903033754 59 249 14.8 20.9 0.00 0.00 0.00 61 1015.1
20260903033257 58 249 14.8 20.9 0.00 0.00 0.00 66 1015.0
20260903032800 58 250 13.0 18.2 0.00 0.00 0.00 73 1014.8
20260903032305 58 251 13.0 18.2 0.00 0.00 0.00 75 1014.9
20260903031806 58 256 13.0 18.2 0.00 0.00 0.00 75 1014.9
20260903031309 58 257 13.0 18.2 0.00 0.00 0.00 75 1014.8
20260903030812 58 259 13.9 18.2 0.00 0.00 0.00 75 1014.7
20260903030315 59 261 12.2 17.4 0.00 0.00 0.00 74 1014.8
20260903025819 59 261 13.9 19.1 0.00 0.00 0.00 73 1014.7
20260903025321 59 261 13.0 20.0 0.00 0.00 0.00 72 1014.7
20260903024824 60 262 13.9 20.0 0.00 0.00 0.00 72 1015.5
20260903024327 60 259 14.8 20.0 0.00 0.00 0.00 71 1015.5
20260903023830 60 269 14.8 19.1 0.00 0.00 0.00 70 1015.5
20260903023333 61 260 14.8 18.2 0.00 0.00 0.00 69 1015.4
20260903022836 61 260 13.9 20.9 0.00 0.00 0.00 67 1015.4
20260903022339 62 268 13.9 20.9 0.00 0.00 0.00 66 1015.4
20260903021842 62 270 15.6 20.9 0.00 0.00 0.00 65 1015.3
20260903021345 62 272 12.2 20.0 0.00 0.00 0.00 64 1015.4
20260903020848 63 263 13.9 20.0 0.00 0.00 0.00 63 1015.3
20260903015854 64 272 15.6 20.9 0.00 0.00 0.00 60 1015.3
20260903015357 64 266 15.6 21.7 0.00 0.00 0.00 58 1015.4
20260903014900 65 267 17.4 21.7 0.00 0.00 0.00 56 1015.4
20260903014403 65 266 15.6 20.9 0.00 0.00 0.00 55 1015.4
20260903013409 66 267 17.4 23.5 0.00 0.00 0.00 53 1014.5
20260903012912 67 261 14.8 22.6 0.00 0.00 0.00 51 1014.6
20260903011421 68 261 14.8 21.7 0.00 0.00 0.00 48 1014.7
20260903010924 69 257 14.8 20.9 0.00 0.00 0.00 48 1014.8
20260903010427 69 256 13.0 23.5 0.00 0.00 0.00 47 1014.9
20260903005930 69 259 17.4 23.5 0.00 0.00 0.00 45 1014.9
20260903005433 70 258 13.9 20.9 0.00 0.00 0.00 44 1014.7
20260903004439 70 260 13.9 20.9 0.00 0.00 0.00 41 1014.9
20260903003942 71 247 13.0 20.9 0.00 0.00 0.00 39 1015.0
20260903002948 71 248 12.2 20.9 0.00 0.00 0.00 38 1015.1
20260903001954 72 247 10.4 20.0 0.00 0.00 0.00 37 1015.1
20260903001457 72 267 13.0 20.9 0.00 0.00 0.00 38 1015.3
20260902235509 74 264 12.2 20.0 0.00 0.00 0.00 36 1015.1
20260902235012 73 261 11.3 20.0 0.00 0.00 0.00 35 1015.2
20260902234515 73 263 12.2 21.7 0.00 0.00 0.00 36 1015.2
20260902234018 74 263 16.5 21.7 0.00 0.00 0.00 35 1015.1
20260902233521 74 255 12.2 21.7 0.00 0.00 0.00 35 1015.2
20260902232527 75 265 13.9 22.6 0.00 0.00 0.00 36 1015.6
20260902231036 75 259 14.8 21.7 0.00 0.00 0.00 33 1015.4
20260902230539 75 249 13.0 21.7 0.00 0.00 0.00 34 1015.7
20260902230042 76 237 12.2 20.9 0.00 0.00 0.00 32 1015.7
20260902225048 76 247 12.2 22.6 0.00 0.00 0.00 32 1015.9
20260902224551 76 256 13.0 22.6 0.00 0.00 0.00 30 1015.7
20260902224054 76 256 13.9 22.6 0.00 0.00 0.00 30 1016.0
20260902223557 76 248 14.8 25.2 0.00 0.00 0.00 27 1016.0
20260902223100 77 265 18.2 25.2 0.00 0.00 0.00 26 1015.7
20260902222603 77 254 10.4 23.5 0.00 0.00 0.00 27 1016.1
20260902222106 77 254 11.3 26.1 0.00 0.00 0.00 24 1015.9
20260902221609 77 242 14.8 26.1 0.00 0.00 0.00 26 1016.1
20260902221112 77 251 11.3 25.2 0.00 0.00 0.00 24 1016.3
20260902220615 78 246 15.6 25.2 0.00 0.00 0.00 22 1016.2
20260902220118 78 249 13.0 22.6 0.00 0.00 0.00 23 1016.4
20260902215621 79 256 12.2 18.2 0.00 0.00 0.00 21 1016.3
20260902215124 78 259 12.2 21.7 0.00 0.00 0.00 20 1016.3
20260902214627 78 229 13.0 21.7 0.00 0.00 0.00 19 1016.4
20260902214130 78 259 9.6 21.7 0.00 0.00 0.00 21 1016.2
20260902213633 78 237 12.2 21.7 0.00 0.00 0.00 19 1016.6
20260902213136 78 241 8.7 22.6 0.00 0.00 0.00 19 1016.5
20260902212639 77 232 11.3 23.5 0.00 0.00 0.00 19 1016.5
20260902211148 76 257 16.5 23.5 0.00 0.00 0.00 19 1016.5
20260902210651 76 265 13.0 25.2 0.00 0.00 0.00 19 1016.5
20260902205657 76 272 14.8 23.5 0.00 0.00 0.00 18 1016.7
20260902202715 76 271 14.8 25.2 0.00 0.00 0.00 19 1016.7
20260902201722 75 263 14.8 26.1 0.00 0.00 0.00 20 1016.8
20260902201224 75 257 14.8 26.1 0.00 0.00 0.00 21 1017.1
20260902200727 76 274 18.2 26.1 0.00 0.00 0.00 20 1016.7
20260902200230 76 254 12.2 25.2 0.00 0.00 0.00 20 1017.1
20260902195734 75 252 12.2 25.2 0.00 0.00 0.00 20 1017.0
20260902195236 75 277 14.8 23.5 0.00 0.00 0.00 20 1016.9
20260902194242 76 262 13.0 21.7 0.00 0.00 0.00 21 1017.0
20260902193745 75 265 12.2 22.6 0.00 0.00 0.00 21 1017.2
20260902193248 75 263 14.8 22.6 0.00 0.00 0.00 21 1017.2
20260902192752 76 259 13.0 22.6 0.00 0.00 0.00 20 1017.1
20260902192254 75 260 9.6 26.1 0.00 0.00 0.00 21 1017.2
20260902191301 74 270 14.8 23.5 0.00 0.00 0.00 20 1017.3
20260902190804 74 267 13.0 24.3 0.00 0.00 0.00 20 1017.3
20260902184816 74 271 13.9 22.6 0.00 0.00 0.00 20 1017.2
20260902184319 74 280 12.2 22.6 0.00 0.00 0.00 20 1017.3